Monroe, MI

12:33 PM EDT on April 26, 2018 (GMT -0400)
Custer

Weather History for KTTF - December, 2011

Change the Weather History Date:

Monday, December 26, 2011

  Actual Average Record
Temperature  
Mean Temperature 38 °F -  
Max Temperature 44 °F 30 °F 63 °F (1982)
Min Temperature 33 °F 17 °F -8 °F (1983)
Degree Days  
Heating Degree Days 26    
Moisture  
Dew Point 29 °F    
Average Humidity 69    
Maximum Humidity 81    
Minimum Humidity 49    
Precipitation  
Precipitation 0.00 in - - ()
Sea Level Pressure  
Sea Level Pressure 30.20 in    
Wind  
Wind Speed 6 mph (SW)    
Max Wind Speed 17 mph    
Max Gust Speed 24 mph    
Visibility 10 miles    
Events      
Averages and records for this station are not official NWS values.
T = Trace of Precipitation, MM = Missing Value Source: NWS Daily Summary

Daily Weather History Graph

Daily Weather History Graph

Search for Another Location

Airport or City:

Astronomy

Dec. 26, 2011 Rise Set
Actual Time 8:00 AM EST 5:08 PM EST
Civil Twilight 7:28 AM EST 5:40 PM EST
Nautical Twilight 6:53 AM EST 6:15 PM EST
Astronomical Twilight 6:19 AM EST 6:49 PM EST
Moon 9:17 AM EST 7:37 PM EST
Length of Visible Light 10h 11m
Length of Day
9h 08m
Waxing Crescent, 5% of the Moon is Illuminated
Dec 26
Waxing Crescent
Jan 1
First Quarter
Jan 9
Full
Jan 16
Last Quarter
Jan 23
New

Hourly Weather History & Observations

Time (EST) Temp. Windchill Dew Point Humidity Pressure Visibility Wind Dir Wind Speed Gust Speed Precip Events Conditions
12:11 AM 33.8 °F 29.6 °F 28.4 °F 81% 30.21 in 10.0 mi WSW 4.6 mph - N/A   Scattered Clouds
12:31 AM 33.8 °F 28.6 °F 28.4 °F 81% 30.22 in 10.0 mi West 5.8 mph - N/A   Mostly Cloudy
12:52 AM 35.6 °F 32.8 °F 30.2 °F 81% 30.22 in 10.0 mi West 3.5 mph - N/A   Overcast
1:12 AM 35.6 °F 32.8 °F 30.2 °F 81% 30.22 in 10.0 mi SW 3.5 mph - N/A   Overcast
1:32 AM 35.6 °F 32.8 °F 30.2 °F 81% 30.23 in 10.0 mi WSW 3.5 mph - N/A   Overcast
1:52 AM 35.6 °F 30.7 °F 30.2 °F 81% 30.23 in 10.0 mi WSW 5.8 mph - N/A   Overcast
2:12 AM 37.4 °F 32.8 °F 30.2 °F 75% 30.24 in 10.0 mi West 5.8 mph - N/A   Overcast
2:32 AM 37.4 °F 33.8 °F 28.4 °F 70% 30.24 in 10.0 mi WNW 4.6 mph - N/A   Overcast
2:52 AM 37.4 °F - 28.4 °F 70% 30.24 in 10.0 mi Calm Calm - N/A   Overcast
3:32 AM 37.4 °F - 30.2 °F 75% 30.24 in 10.0 mi Calm Calm - N/A   Overcast
3:52 AM 35.6 °F 31.7 °F 30.2 °F 81% 30.25 in 10.0 mi WSW 4.6 mph - N/A   Overcast
4:12 AM 37.4 °F - 30.2 °F 75% 30.26 in 10.0 mi Calm Calm - N/A   Overcast
4:32 AM 35.6 °F - 30.2 °F 81% 30.27 in 10.0 mi Calm Calm - N/A   Overcast
4:53 AM 35.6 °F - 30.2 °F 81% 30.27 in 10.0 mi Calm Calm - N/A   Overcast
5:13 AM 35.6 °F - 30.2 °F 81% 30.28 in 10.0 mi Calm Calm - N/A   Overcast
5:33 AM 35.6 °F 30.7 °F 30.2 °F 81% 30.29 in 10.0 mi WNW 5.8 mph - N/A   Overcast
5:53 AM 35.6 °F 32.8 °F 28.4 °F 75% 30.30 in 10.0 mi West 3.5 mph - N/A   Overcast
6:13 AM 35.6 °F - 28.4 °F 75% 30.30 in 10.0 mi Calm Calm - N/A   Overcast
6:33 AM 35.6 °F - 28.4 °F 75% 30.30 in 10.0 mi Calm Calm - N/A   Overcast
6:53 AM 35.6 °F 32.8 °F 28.4 °F 75% 30.30 in 10.0 mi SW 3.5 mph - N/A   Overcast
7:13 AM 35.6 °F 32.8 °F 28.4 °F 75% 30.31 in 10.0 mi SW 3.5 mph - N/A   Overcast
7:33 AM 35.6 °F 32.8 °F 28.4 °F 75% 30.31 in 10.0 mi SSW 3.5 mph - N/A   Overcast
7:53 AM 35.6 °F 31.7 °F 28.4 °F 75% 30.31 in 10.0 mi SSW 4.6 mph - N/A   Overcast
8:13 AM 35.6 °F 31.7 °F 30.2 °F 81% 30.31 in 10.0 mi SW 4.6 mph - N/A   Overcast
8:33 AM 35.6 °F 32.8 °F 30.2 °F 81% 30.31 in 10.0 mi SW 3.5 mph - N/A   Overcast
9:14 AM 37.4 °F - 28.4 °F 70% 30.30 in 10.0 mi Calm Calm - N/A   Scattered Clouds
9:54 AM 39.2 °F 33.0 °F 28.4 °F 65% 30.29 in 10.0 mi SW 9.2 mph - N/A   Clear
10:14 AM 39.2 °F 33.6 °F 30.2 °F 70% 30.30 in 10.0 mi SW 8.1 mph - N/A   Clear
10:34 AM 41.0 °F 36.4 °F 30.2 °F 65% 30.29 in 10.0 mi WSW 6.9 mph - N/A   Clear
10:54 AM 41.0 °F 35.8 °F 30.2 °F 65% 30.29 in 10.0 mi SW 8.1 mph - N/A   Clear
11:15 AM 42.8 °F 36.2 °F 28.4 °F 57% 30.27 in 10.0 mi SW 12.7 mph - N/A   Clear
11:35 AM 42.8 °F 37.0 °F 28.4 °F 57% 30.26 in 10.0 mi SW 10.4 mph - N/A   Clear
11:55 AM 42.8 °F 35.8 °F 28.4 °F 57% 30.24 in 10.0 mi WSW 13.8 mph 17.3 mph N/A   Clear
12:15 PM 42.8 °F 35.8 °F 28.4 °F 57% 30.23 in 10.0 mi SW 13.8 mph 19.6 mph N/A   Clear
12:30 PM 42.8 °F 35.8 °F 28.4 °F 57% 30.22 in 10.0 mi WSW 13.8 mph - N/A   Clear
12:55 PM 44.6 °F 38.4 °F 26.6 °F 49% 30.19 in 10.0 mi SSW 12.7 mph 16.1 mph N/A   Clear
1:10 PM 44.6 °F 39.2 °F 28.4 °F 53% 30.18 in 10.0 mi SSW 10.4 mph - N/A   Clear
1:30 PM 44.6 °F 38.8 °F 28.4 °F 53% 30.16 in 10.0 mi SSW 11.5 mph - N/A   Clear
1:50 PM 44.6 °F 37.4 °F 28.4 °F 53% 30.17 in 10.0 mi SW 16.1 mph - N/A   Clear
2:11 PM 44.6 °F 37.2 °F 28.4 °F 53% 30.16 in 10.0 mi SSW 17.3 mph 23.0 mph N/A   Clear
2:31 PM 44.6 °F 37.8 °F 28.4 °F 53% 30.16 in 10.0 mi SSW 15.0 mph 24.2 mph N/A   Clear
2:51 PM 44.6 °F 37.4 °F 28.4 °F 53% 30.16 in 10.0 mi SSW 16.1 mph 23.0 mph N/A   Clear
3:11 PM 44.6 °F 37.4 °F 28.4 °F 53% 30.15 in 10.0 mi SSW 16.1 mph 23.0 mph N/A   Clear
3:31 PM 44.6 °F 38.1 °F 28.4 °F 53% 30.13 in 10.0 mi SW 13.8 mph - N/A   Clear
3:51 PM 44.6 °F 38.8 °F 28.4 °F 53% 30.11 in 10.0 mi SSW 11.5 mph - N/A   Clear
4:11 PM 42.8 °F 37.0 °F 28.4 °F 57% 30.10 in 10.0 mi SSW 10.4 mph - N/A   Clear
4:31 PM 42.8 °F 38.0 °F 28.4 °F 57% 30.09 in 10.0 mi SSW 8.1 mph - N/A   Clear
4:51 PM 41.0 °F 35.8 °F 28.4 °F 61% 30.08 in 10.0 mi South 8.1 mph - N/A   Clear
5:11 PM 41.0 °F 37.1 °F 28.4 °F 61% 30.09 in 10.0 mi SSW 5.8 mph - N/A   Clear
5:31 PM 41.0 °F 37.1 °F 28.4 °F 61% 30.11 in 10.0 mi SW 5.8 mph - N/A   Clear
5:52 PM 39.2 °F 35.9 °F 28.4 °F 65% 30.11 in 10.0 mi SSW 4.6 mph - N/A   Clear
6:12 PM 39.2 °F 37.0 °F 28.4 °F 65% 30.11 in 10.0 mi SSW 3.5 mph - N/A   Clear
6:32 PM 39.2 °F 35.9 °F 28.4 °F 65% 30.10 in 10.0 mi South 4.6 mph - N/A   Clear
6:52 PM 37.4 °F 34.9 °F 28.4 °F 70% 30.09 in 10.0 mi South 3.5 mph - N/A   Clear
7:12 PM 37.4 °F 33.8 °F 28.4 °F 70% 30.09 in 10.0 mi SSW 4.6 mph - N/A   Clear
7:32 PM 35.6 °F 30.7 °F 28.4 °F 75% 30.08 in 10.0 mi SSW 5.8 mph - N/A   Clear
7:52 PM 35.6 °F 30.7 °F 28.4 °F 75% 30.07 in 10.0 mi South 5.8 mph - N/A   Clear
8:13 PM 35.6 °F 31.7 °F 28.4 °F 75% 30.07 in 10.0 mi South 4.6 mph - N/A   Clear
8:33 PM 35.6 °F 30.7 °F 30.2 °F 81% 30.05 in 10.0 mi South 5.8 mph - N/A   Clear
8:53 PM 35.6 °F 30.7 °F 30.2 °F 81% 30.04 in 10.0 mi South 5.8 mph - N/A   Clear
9:13 PM 35.6 °F 30.7 °F 30.2 °F 81% 30.04 in 10.0 mi SSW 5.8 mph - N/A   Clear
9:33 PM 35.6 °F 30.7 °F 30.2 °F 81% 30.03 in 10.0 mi SSW 5.8 mph - N/A   Clear
9:53 PM 35.6 °F 30.7 °F 28.4 °F 75% 30.01 in 10.0 mi SSW 5.8 mph - N/A   Clear
10:13 PM 35.6 °F 30.7 °F 28.4 °F 75% 30.00 in 10.0 mi South 5.8 mph - N/A   Clear
10:34 PM 33.8 °F 28.6 °F 28.4 °F 81% 29.99 in 10.0 mi South 5.8 mph - N/A   Clear
10:54 PM 35.6 °F 31.7 °F 28.4 °F 75% 29.99 in 10.0 mi SSW 4.6 mph - N/A   Clear
11:34 PM 33.8 °F 29.6 °F 28.4 °F 81% 29.97 in 10.0 mi South 4.6 mph - N/A   Clear
11:54 PM 35.6 °F 31.7 °F 30.2 °F 81% 29.96 in 10.0 mi SSW 4.6 mph - N/A   Clear